Chester, CT

3:28 AM EST on December 11, 2019 (GMT -0500)
Chester

Weather History for KSNC - October, 2019

Change the Weather History Date:

Tuesday, October 22, 2019

  Actual Average (WUND) Record (WUND)
Temperature  
Mean Temperature 54 °F -  
Max Temperature 59 °F - - (-1)
Min Temperature 48 °F - - (-1)
Degree Days  
Heating Degree Days 12    
Growing Degree Days 4 (Base 50)    
Moisture  
Dew Point 50 °F    
Average Humidity 87    
Maximum Humidity 100    
Minimum Humidity 66    
Precipitation  
Precipitation 0.00 in - - ()
Sea Level Pressure  
Sea Level Pressure 30.03 in    
Wind  
Wind Speed 3 mph ()    
Max Wind Speed 10 mph    
Max Gust Speed 15 mph    
Visibility 7.0 miles    
Events Fog , Rain    
Averages and records for this station are not official NWS values.
T = Trace of Precipitation, MM = Missing Value Source: Averaged Metar Reports

Daily Weather History Graph

Daily Weather History Graph

Search for Another Location

Airport or City:

Astronomy

Oct. 22, 2019 Rise Set
Actual Time 7:09 AM EDT 5:58 PM EDT
Civil Twilight 6:41 AM EDT 6:27 PM EDT
Nautical Twilight 6:09 AM EDT 6:59 PM EDT
Astronomical Twilight 5:37 AM EDT 7:31 PM EDT
Moon 12:10 AM EDT (10/22) 3:11 PM EDT (10/22)
Length of Visible Light 11h 45m
Length of Day
10h 49m
Last Quarter, 37% of the Moon is Illuminated
Oct 22
Last Quarter
Oct 27
New
Nov 4
First Quarter
Nov 12
Full
Nov 19
Last Quarter

Hourly Weather History & Observations

Time (EDT) Temp. Dew Point Humidity Pressure Visibility Wind Dir Wind Speed Gust Speed Precip Events Conditions
12:15 AM 50.0 °F 39.2 °F 66% 30.14 in 10.0 mi Calm Calm - N/A   Clear
12:35 AM 48.2 °F 41.0 °F 76% 30.14 in 10.0 mi Calm Calm - N/A   Clear
12:55 AM 48.2 °F 41.0 °F 76% 30.14 in 10.0 mi North 4.6 mph - N/A   Clear
1:15 AM 48.2 °F 39.2 °F 71% 30.14 in 10.0 mi North 3.5 mph - N/A   Clear
1:35 AM 48.2 °F 39.2 °F 71% 30.14 in 10.0 mi Calm Calm - N/A   Clear
1:55 AM 48.2 °F 41.0 °F 76% 30.14 in 10.0 mi North 4.6 mph - N/A   Unknown
2:15 AM 50.0 °F 41.0 °F 71% 30.13 in 10.0 mi North 4.6 mph - N/A   Clear
2:35 AM 48.2 °F 41.0 °F 76% 30.13 in 10.0 mi North 4.6 mph - N/A   Clear
2:55 AM 50.0 °F 39.2 °F 66% 30.12 in 10.0 mi Calm Calm - N/A   Clear
3:15 AM 48.2 °F 41.0 °F 76% 30.10 in 10.0 mi NE 5.8 mph - N/A   Clear
3:35 AM 50.0 °F 41.0 °F 71% 30.11 in 10.0 mi Calm Calm - N/A   Clear
3:55 AM 48.2 °F 41.0 °F 76% 30.11 in 10.0 mi NNE 3.5 mph - N/A   Clear
4:15 AM 50.0 °F 41.0 °F 71% 30.11 in 10.0 mi Calm Calm - N/A   Clear
4:35 AM 48.2 °F 42.8 °F 82% 30.09 in 10.0 mi Calm Calm - N/A   Clear
4:55 AM 48.2 °F 42.8 °F 82% 30.11 in 10.0 mi Calm Calm - N/A   Clear
5:15 AM 48.2 °F 44.6 °F 87% 30.09 in 10.0 mi NNE 4.6 mph - N/A   Unknown
5:35 AM 50.0 °F 44.6 °F 82% 30.10 in 10.0 mi NNW 4.6 mph - N/A   Clear
5:55 AM 50.0 °F 44.6 °F 82% 30.11 in 10.0 mi NNE 4.6 mph - N/A   Clear
6:15 AM 48.2 °F 44.6 °F 87% 30.10 in 10.0 mi NNE 3.5 mph - N/A   Clear
6:35 AM 48.2 °F 44.6 °F 87% 30.10 in 10.0 mi Calm Calm - N/A   Clear
6:55 AM 50.0 °F 46.4 °F 87% 30.09 in 10.0 mi Calm Calm - N/A   Clear
7:15 AM 50.0 °F 46.4 °F 87% 30.10 in 10.0 mi Variable 3.5 mph - N/A   Clear
7:35 AM 50.0 °F 46.4 °F 87% 30.09 in 10.0 mi ENE 4.6 mph - N/A   Clear
7:55 AM 50.0 °F 48.2 °F 94% 30.10 in 10.0 mi Calm Calm - N/A   Clear
8:15 AM 50.0 °F 48.2 °F 94% 30.11 in 10.0 mi Calm Calm - N/A   Clear
8:35 AM 50.0 °F 48.2 °F 94% 30.13 in 10.0 mi North 4.6 mph - N/A   Partly Cloudy
8:55 AM 51.8 °F 48.2 °F 88% 30.12 in 10.0 mi Variable 3.5 mph - N/A   Mostly Cloudy
9:15 AM 51.8 °F 48.2 °F 88% 30.12 in 10.0 mi ENE 6.9 mph - N/A   Mostly Cloudy
9:35 AM 53.6 °F 50.0 °F 88% 30.11 in 10.0 mi ENE 5.8 mph - N/A   Mostly Cloudy
9:55 AM 53.6 °F 50.0 °F 88% 30.09 in 10.0 mi East 10.4 mph - N/A   Overcast
10:35 AM 55.4 °F 50.0 °F 82% 30.09 in 10.0 mi East 4.6 mph - N/A   Overcast
10:55 AM 55.4 °F 51.8 °F 88% 30.09 in 10.0 mi NE 4.6 mph - N/A   Unknown
11:15 AM 55.4 °F 51.8 °F 88% 30.09 in 10.0 mi NE 6.9 mph - N/A   Overcast
11:55 AM 57.2 °F 51.8 °F 82% 30.09 in 10.0 mi East 5.8 mph - N/A   Overcast
12:15 PM 57.2 °F 51.8 °F 82% 30.08 in 10.0 mi ENE 6.9 mph - N/A   Overcast
12:35 PM 57.2 °F 53.6 °F 88% 30.07 in 6.0 mi East 4.6 mph - N/A   Overcast
12:55 PM 55.4 °F 53.6 °F 94% 30.07 in 3.0 mi NE 3.5 mph - N/A   Overcast
1:35 PM 55.4 °F 53.6 °F 94% 30.05 in 5.0 mi East 5.8 mph - N/A   Overcast
1:55 PM 57.2 °F 53.6 °F 88% 30.02 in 3.0 mi ENE 6.9 mph - N/A   Overcast
2:15 PM 57.2 °F 53.6 °F 88% 30.02 in 7.0 mi ENE 4.6 mph - N/A   Overcast
2:35 PM 59.0 °F 53.6 °F 82% 30.01 in 10.0 mi Variable 6.9 mph - N/A   Overcast
2:55 PM 59.0 °F 53.6 °F 82% 30.01 in 10.0 mi Variable 5.8 mph - N/A   Overcast
3:15 PM 59.0 °F 53.6 °F 82% 29.99 in 10.0 mi ESE 8.1 mph - N/A   Overcast
3:35 PM 59.0 °F 53.6 °F 82% 29.98 in 10.0 mi East 6.9 mph 13.8 mph N/A   Overcast
3:55 PM 59.0 °F 53.6 °F 82% 29.97 in 10.0 mi Variable 6.9 mph - N/A   Overcast
4:15 PM 59.0 °F 53.6 °F 82% 29.97 in 10.0 mi Variable 3.5 mph - N/A   Overcast
5:15 PM 57.2 °F 55.4 °F 94% 29.97 in 0.8 mi Variable 3.5 mph - N/A   Overcast
5:35 PM 57.2 °F 55.4 °F 94% 29.97 in 0.5 mi East 6.9 mph - N/A Fog Fog
5:55 PM 57.2 °F 55.4 °F 94% 29.95 in 0.8 mi East 4.6 mph - N/A   Overcast
6:15 PM 57.2 °F 55.4 °F 94% 29.95 in 1.2 mi Variable 6.9 mph - N/A   Overcast
6:35 PM 57.2 °F 55.4 °F 94% 29.94 in 1.2 mi Variable 6.9 mph - N/A   Overcast
6:55 PM 57.2 °F 57.2 °F 100% 29.95 in 2.0 mi East 6.9 mph - N/A   Mist
7:15 PM 57.2 °F 57.2 °F 100% 29.94 in 4.0 mi Variable 5.8 mph 12.7 mph N/A   Overcast
7:35 PM 57.2 °F 57.2 °F 100% 29.94 in 3.0 mi East 8.1 mph - N/A   Overcast
7:55 PM 57.2 °F 57.2 °F 100% 29.94 in 1.5 mi ESE 5.8 mph - N/A   Overcast
8:15 PM 57.2 °F 55.4 °F 94% 29.92 in 1.0 mi Variable 6.9 mph 15.0 mph N/A   Overcast
8:35 PM 57.2 °F 55.4 °F 94% 29.92 in 1.0 mi East 6.9 mph - N/A   Overcast
8:55 PM 55.4 °F 55.4 °F 100% 29.91 in 1.2 mi East 6.9 mph - N/A   Overcast
9:15 PM 55.4 °F 55.4 °F 100% 29.92 in 1.8 mi Variable 5.8 mph - N/A   Overcast
9:35 PM 55.4 °F 55.4 °F 100% 29.92 in 1.2 mi East 5.8 mph - N/A   Mist
9:55 PM 55.4 °F 55.4 °F 100% 29.92 in 1.2 mi Variable 4.6 mph - N/A   Light Drizzle
10:15 PM 55.4 °F 55.4 °F 100% 29.91 in 1.0 mi East 4.6 mph - N/A Rain Light Rain
10:35 PM 55.4 °F 55.4 °F 100% 29.90 in 1.8 mi Variable 5.8 mph - N/A Rain Light Rain
10:55 PM 57.2 °F 57.2 °F 100% 29.88 in 4.0 mi East 5.8 mph - N/A Rain Light Rain
11:15 PM 57.2 °F 57.2 °F 100% 29.87 in 1.8 mi Calm Calm - N/A Rain Light Rain
11:35 PM 57.2 °F 57.2 °F 100% 29.86 in 2.0 mi Variable 5.8 mph - N/A Rain Light Rain
11:55 PM 57.2 °F 57.2 °F 100% 29.85 in 4.0 mi East 4.6 mph - N/A Rain Light Rain